sat.trackr.live / text

‹ back to catalog

STARLINK-4755

NORAD 53851 · 2022-114AK

PAYLOAD ACTIVE UNKNOWN

§ Identity

Operator
Country
US
Launch date
2022-09-19
Launch site
AFETR
Launch vehicle
Mass (kg)
RCS (m²)

Purposes: comms

External: N2YO · Heavens-Above · Gunter

§ Orbital elements

Epoch: 2026-05-25T04:32:33.543168Z

Period
95.44 min
Inclination
53.2137°
Eccentricity
0.0001190
Mean motion
15.08843558 rev/d
Perigee alt
538.9 km
Apogee alt
540.6 km
Semi-major
6,917.9 km
B*
6.0113e-5
RAAN
310.4746°
Arg perigee
88.1272°
Mean anomaly
271.9857°
Rev number
20,452

§ Raw data

STARLINK-47551 53851U 22114AK  26145.18927712  .00000669  00000+0  60113-4 0  99922 53851  53.2137 310.4746 0001190  88.1272 271.9857 15.08843558204528

JSON: /api/v1/satellites/53851 · /tle

For live sub-satellite position, see the globe view (requires WebGL).

§ Visibility from observer

Set your observer location to see the next 7 days of passes ≥ 10°. The values pass through the URL so the page stays shareable.

No JS? Fill the form by hand. The geolocation button needs JavaScript.